C/2018 F4 ( PanSTARRS )

Japanese version
Home page
Updated on August 14, 2018

---------------------------------------------------------------------

* Profile

Discovery Date March 17, 2018
Magnitude 20.4 mag
Discoverer Pan-STARRS 1 telescope (Haleakala)

* Pictures

* Orbital Elements

Epoch 2019 Dec. 23.0 TT = JDT 2458840.5
T 2019 Dec. 4.09652 TT                                  MPCW
q   3.4397694            (2000.0)            P               Q
z  -0.0004245      Peri.  263.21386     -0.01433791     +0.89948378
 +/-0.0000104      Node    26.50745     +0.16996655     +0.43259990
e   1.0014601      Incl.   78.09776     -0.98534552     +0.06153252
From 176 observations 2018 Mar. 17-Aug. 10, mean residual 0".5.

* Finding Charts

* Magnitudes Graph

        m1 = -4.5 + 5 log d + 25   log r  [    ,-610]  (             - 2018 Apr.  3)
        m1 =  7.5 + 5 log d + 10.0 log r  [-610,    ]  (2018 Apr.  3 -             )

---------------------------------------------------------------------

The orbital elements are published on M.P.E.C. 2018-P86.
The charts are made with StellaNavigator Ver.10 (AstroArts).
The magnitudes graphs are made with Comet for Windows.

---------------------------------------------------------------------

Copyright(C) Seiichi Yoshida (comet@aerith.net). All rights reserved.